Regional Weather Roundup
Issued by NWS

Home | Current Version | Previous Version | Graphics & Text | Print | Product List | Glossary Off
Versions: 1 2 3 4 5 6 7 8 9 10 11 12 13 14 15 16 17 18 19 20 21 22 23 24 25 26 27 28 29 30 31 32 33 34 35 36 37 38 39 40 41 42 43 44 45 46 47 48 49 50

000
ASUS43 KTOP 200159
RWRKS

WEATHER ROUNDUP FOR KANSAS
NATIONAL WEATHER SERVICE GOODLAND KS
900 PM CDT SUN OCT 19 2014

NOTE:  "FAIR" INDICATES FEW OR NO CLOUDS BELOW 12,000 FEET WITH NO
SIGNIFICANT WEATHER AND/OR OBSTRUCTIONS TO VISIBILITY.

KSZ001>006-013>018-027>032-041>047-200300-
NORTHWEST KANSAS

CITY           SKY/WX    TMP DP  RH WIND       PRES   REMARKS
GOODLAND       CLEAR     52  42  69 E5        30.08R
HAYS           CLEAR     57  48  72 SE9       30.01R
HILL CITY      CLEAR     54  46  74 NW3       30.02R
RUSSELL        CLEAR     59  51  75 SE12      29.99R
$$

KSZ061>065-074>080-084>089-200300-
SOUTHWEST KANSAS

CITY           SKY/WX    TMP DP  RH WIND       PRES   REMARKS
DODGE CITY     CLEAR     61  49  64 N6        29.99R
ELKHART          N/A     60  45  57 E3          N/A
GARDEN CITY    CLEAR     57  48  72 N10       30.01R
GREAT BEND     CLEAR     59  52  77 E7        30.00R
LIBERAL        CLEAR     64  48  55 N8        30.02R
$$

KSZ066>073-081>083-090>101-200300-
SOUTHEAST KANSAS

CITY           SKY/WX    TMP DP  RH WIND       PRES   REMARKS
CHANUTE        CLOUDY    61  54  77 S6        30.04F
COFFEYVILLE    CLOUDY    60  56  86 SE5       30.04S
HUTCHINSON     CLEAR     62  53  72 SE7       30.00S
NEWTON         CLEAR     61  48  63 SE8       30.03S
PARSONS        LGT RAIN  62  55  77 SE3       30.05F
WICHITA INTL   PTCLDY    64  54  69 SE9       30.00F
WICHITA JABRA  CLEAR     62  53  72 S8        30.01F
WINFIELD       CLOUDY    64  56  75 SE7       30.03S
$$

KSZ007>012-019>026-033>040-048>060-102>105-200300-
NORTHEAST KANSAS

CITY           SKY/WX    TMP DP  RH WIND       PRES   REMARKS
CONCORDIA      CLEAR     59  51  75 S12       30.00R
EMPORIA        PTCLDY    59  51  75 S10       30.02
LAWRENCE       PTCLDY    55  47  74 S5        30.00F
MANHATTAN      CLEAR     55  49  80 CALM      30.00S
OLATHE IND     CLEAR     56  50  80 S8        30.02S
OLATHE EXE     CLEAR     57  50  77 S6        30.01S
SALINA         CLEAR     56  50  80 SE7       30.01R
TOPEKA BILLARD CLEAR     62  49  62 S8        30.00S
TOPEKA FORBES  CLEAR     58  49  72 S7        30.00S
$$



USA.gov is the U.S. government's official web portal to all federal, state and local government web resources and services.